Location: Kitchener
(43.4500°N, 80.5000°W)
Time: 10:27:56
(UTC-04:00)

ATLAS 5 CENTAUR R/B - Visible Passes

Search period start: 30 May 2015 00:00
Search period end: 09 June 2015 00:00
Orbit: 700 x 962 km, 63.4° (Epoch: 20 April)

Date Brightness Start Highest point End Pass type
(mag) Time Alt. Az. Time Alt. Az. Time Alt. Az.
30 May 2.0 02:43:34 53° S 02:44:39 70° ESE 02:50:03 10° NE visible
30 May 3.7 04:25:42 10° W 04:29:58 24° NW 04:34:25 10° NNE visible
31 May 1.9 02:25:09 57° SSE 02:25:55 66° ESE 02:31:16 10° NE visible
31 May 3.7 04:06:50 10° W 04:11:10 25° NW 04:15:41 10° NNE visible
01 Jun 2.0 02:06:42 59° SSE 02:07:10 62° ESE 02:12:30 10° NE visible
01 Jun 3.7 03:48:14 11° W 03:52:22 26° NW 03:56:57 10° NNE visible
02 Jun 2.0 01:48:12 58° SE 01:48:25 58° ESE 01:53:43 10° NE visible
02 Jun 3.6 03:29:44 13° W 03:33:34 27° NW 03:38:13 10° NNE visible
03 Jun 2.1 01:29:38 55° ESE 01:29:40 55° ESE 01:34:56 10° NE visible
03 Jun 3.6 03:11:10 14° W 03:14:45 29° NW 03:19:29 10° NNE visible
03 Jun 4.7 04:59:56 10° NNW 05:01:29 11° NNW 05:02:58 10° N visible
04 Jun 2.2 01:11:02 51° ESE 01:11:02 51° ESE 01:16:09 10° NE visible
04 Jun 3.5 02:52:33 16° W 02:55:57 30° NW 03:00:45 10° NNE visible
04 Jun 4.7 04:40:56 10° NNW 04:42:38 11° NNW 04:44:16 10° N visible
05 Jun 2.3 00:52:21 48° ESE 00:52:21 48° ESE 00:57:21 10° NE visible
05 Jun 3.5 02:33:53 17° W 02:37:10 31° NW 02:42:01 10° NNE visible
05 Jun 4.7 04:21:57 10° NW 04:23:48 11° NNW 04:25:35 10° N visible
06 Jun 2.3 00:33:37 45° ESE 00:33:37 45° ESE 00:38:34 10° NE visible
06 Jun 3.5 02:15:08 17° W 02:18:21 32° NW 02:23:16 10° NNE visible
06 Jun 4.7 04:02:58 10° NW 04:04:57 12° NNW 04:06:52 10° N visible
07 Jun 2.4 00:14:47 42° ESE 00:14:47 42° ESE 00:19:46 10° NE visible
07 Jun 3.4 01:56:18 18° W 01:59:33 34° NW 02:04:32 10° NNE visible
07 Jun 4.7 03:44:01 10° NW 03:46:07 12° NNW 03:48:10 10° N visible
07 Jun 2.4 23:55:51 40° ESE 23:55:58 40° ESE 00:00:57 10° NE visible
08 Jun 3.4 01:37:21 17° W 01:40:45 35° NW 01:45:47 10° NNE visible
08 Jun 4.8 03:25:03 10° NW 03:27:16 12° NNW 03:29:27 10° N visible
08 Jun 2.4 23:36:46 36° SE 23:37:14 37° ESE 23:42:09 10° NE visible
